Content
SEND FEEDBACK

Daily
Averages
Monthly
Summary
United States of America

DORSET, VERMONT


Home > North America > United States > Vermont
Elevation: 980 feet     Latitude: 43 15N     Longitude: 073 06W

WEATHER
 
SELECT A DAY
Number of Records: 460,582;   Date Range: 1/1/95 - 9/28/14
 
SHARE

PRINT THIS DATA

[ ← Previous Day ]
WEATHER ALMANAC - APRIL 25, 2014
[ Next Day → ]
[ °C ]   °F
Weather ElementAverageHighLow
Temperature45.1 °F59 °F (4:15 pm)26.6 °F (5:35 am)
Dewpoint22.2 °F30.2 °F (9:35 pm)15.8 °F (12:15 pm)
Humidity45.8 %80 % (1:55 am)20 % (4:35 pm)
Barometer29.91 in30.05 in (8:35 am)29.74 in (11:35 pm)
Wind Speed4 mph11.5 mph (11:35 pm)
Weather ElementAverage
Visibility9.9 mi
Wind DirectionSSE (143.5 °)

Weather ElementTotal
Precipitation---
Heating Degree Days22.2 (Base 65)
Averaged from 71 records on April 25, 2014
WEATHER CONDITIONS BREAKOUT
WIND DIRECTION BREAKOUT
WEATHER BY HOUR - APRIL 25, 2014
[ °C ]   °F
Local TimeTemperatureDewpointHumidityBarometerVisibilityWind DirectionWind SpeedGust SpeedPrecipitationEventsConditions
12:35 AM33.8 °F24.8 °F70 %29.99 in10.0 miSE (130°)4.6 mphClear
12:55 AM33.8 °F24.8 °F70 %29.99 in10.0 miESE (110°)4.6 mphClear
1:15 AM33.8 °F24.8 °F70 %29.98 in10.0 miSE (140°)4.6 mphClear
1:35 AM32.0 °F24.8 °F75 %29.98 in10.0 miCalmClear
1:55 AM30.2 °F24.8 °F80 %29.98 in10.0 miSSE (150°)3.5 mphClear
2:15 AM33.8 °F21.2 °F60 %29.98 in10.0 miSE (130°)3.5 mphClear
2:35 AM30.2 °F21.2 °F69 %29.98 in10.0 miSSE (150°)5.8 mphClear
2:55 AM30.2 °F23.0 °F75 %29.98 in10.0 miSE (130°)4.6 mphClear
3:15 AM30.2 °F23.0 °F75 %29.98 in10.0 miCalmClear
3:35 AM28.4 °F23.0 °F80 %29.98 in10.0 miESE (120°)4.6 mphClear
3:55 AM28.4 °F23.0 °F80 %29.99 in10.0 miCalmClear
4:15 AM28.4 °F23.0 °F80 %29.99 in10.0 miSE (140°)6.9 mphClear
4:35 AM28.4 °F23.0 °F80 %29.99 in10.0 miCalmClear
4:55 AM28.4 °F21.2 °F74 %29.99 in10.0 miSE (130°)3.5 mphClear
5:15 AM28.4 °F23.0 °F80 %30.00 in10.0 miESE (120°)3.5 mphClear
5:35 AM26.6 °F21.2 °F80 %30.00 in10.0 miESE (120°)4.6 mphClear
5:55 AM26.6 °F21.2 °F80 %30.01 in10.0 miCalmClear
6:15 AM26.6 °F21.2 °F80 %30.01 in10.0 miCalmClear
6:35 AM28.4 °F23.0 °F80 %30.02 in10.0 miSE (130°)5.8 mphClear
6:55 AM30.2 °F24.8 °F80 %30.02 in10.0 miESE (120°)4.6 mphClear
7:15 AM30.2 °F24.8 °F80 %30.03 in10.0 miSE (140°)5.8 mphClear
7:35 AM33.8 °F24.8 °F70 %30.03 in10.0 miSE (140°)4.6 mphClear
7:55 AM37.4 °F21.2 °F52 %30.04 in10.0 miCalmClear
8:15 AM37.4 °F21.2 °F52 %30.04 in10.0 miNW (320°)4.6 mphClear
8:35 AM39.2 °F21.2 °F49 %30.05 in10.0 miNorth (360°)3.5 mphClear
8:55 AM39.2 °F24.8 °F56 %30.05 in10.0 miNNE (30°)3.5 mphClear
9:15 AM42.8 °F23.0 °F46 %30.04 in10.0 miNorth (10°)8.1 mphClear
9:35 AM42.8 °F21.2 °F42 %30.04 in10.0 miNorth (350°)5.8 mphClear
9:55 AM42.8 °F23.0 °F46 %30.04 in10.0 miNorth (350°)6.9 mphClear
10:15 AM44.6 °F24.8 °F46 %30.02 in10.0 miNE (40°)4.6 mphClear
10:35 AM46.4 °F17.6 °F32 %30.01 in10.0 miNNE (30°)6.9 mphClear
10:55 AM46.4 °F19.4 °F34 %30.00 in10.0 miNW (310°)6.9 mphClear
11:15 AM48.2 °F17.6 °F30 %29.99 in10.0 miNNE (20°)6.9 mphClear
11:35 AM48.2 °F17.6 °F30 %29.98 in10.0 miNNW (340°)8.1 mphClear
11:55 AM50.0 °F17.6 °F28 %29.97 in10.0 miNorth (350°)8.1 mphClear
12:15 PM51.8 °F15.8 °F24 %29.96 in10.0 miNNW (340°)8.1 mphClear
12:35 PM51.8 °F17.6 °F26 %29.95 in10.0 miNE (40°)6.9 mphClear
12:55 PM53.6 °F19.4 °F26 %29.94 in10.0 miNNW (330°)5.8 mphClear
1:15 PM53.6 °F19.4 °F26 %29.93 in10.0 miNNW (340°)4.6 mphClear
1:35 PM53.6 °F17.6 °F24 %29.92 in10.0 miNNW (330°)6.9 mphClear
1:55 PM55.4 °F17.6 °F23 %29.91 in10.0 miNNE (30°)5.8 mphClear
2:15 PM55.4 °F17.6 °F23 %29.90 in10.0 miNorth (350°)3.5 mphClear
2:35 PM55.4 °F15.8 °F21 %29.89 in10.0 miSSE (150°)3.5 mphClear
2:55 PM55.4 °F17.6 °F23 %29.88 in10.0 miCalmClear
3:15 PM57.2 °F17.6 °F21 %29.87 in6.0 miNE (40°)6.9 mphClear
3:35 PM57.2 °F17.6 °F21 %29.86 in10.0 miWSW (250°)3.5 mphClear
3:55 PM57.2 °F19.4 °F23 %29.85 in10.0 miWNW (290°)3.5 mphClear
4:15 PM59.0 °F19.4 °F22 %29.84 in10.0 miWSW (250°)3.5 mphClear
4:35 PM59.0 °F17.6 °F20 %29.82 in10.0 miCalmClear
4:55 PM59.0 °F19.4 °F22 %29.82 in10.0 miNE (40°)5.8 mphClear
5:15 PM59.0 °F19.4 °F22 %29.81 in10.0 miNNE (20°)4.6 mphClear
5:35 PM59.0 °F19.4 °F22 %29.80 in10.0 miNNW (330°)5.8 mphClear
5:55 PM59.0 °F19.4 °F22 %29.79 in10.0 miNorth (350°)5.8 mphClear
6:15 PM57.2 °F21.2 °F25 %29.78 in10.0 miNorth (360°)3.5 mphClear
6:35 PM57.2 °F19.4 °F23 %29.77 in10.0 miNW (320°)3.5 mphClear
6:55 PM57.2 °F21.2 °F25 %29.76 in10.0 miNW (320°)3.5 mphClear
7:15 PM57.2 °F21.2 °F25 %29.77 in10.0 miNW (310°)3.5 mphClear
7:35 PM55.4 °F23.0 °F29 %29.77 in10.0 miNorth (10°)3.5 mphPartly Cloudy
7:55 PM55.4 °F26.6 °F33 %29.77 in10.0 miNorth (10°)4.6 mphMostly Cloudy
8:15 PM53.6 °F26.6 °F35 %29.76 in10.0 miNNE (20°)3.5 mphMostly Cloudy
8:35 PM53.6 °F28.4 °F38 %29.77 in10.0 miCalmScattered Clouds
8:55 PM53.6 °F26.6 °F35 %29.77 in10.0 miCalmScattered Clouds
9:15 PM51.8 °F26.6 °F38 %29.78 in10.0 miCalmOvercast
9:35 PM51.8 °F30.2 °F44 %29.78 in10.0 miCalmOvercast
9:55 PM51.8 °F28.4 °F41 %29.78 in10.0 miCalmOvercast
10:15 PM50.0 °F28.4 °F43 %29.78 in10.0 miCalmOvercast
10:35 PM51.8 °F28.4 °F41 %29.76 in10.0 miWNW (290°)4.6 mphOvercast
10:55 PM50.0 °F28.4 °F43 %29.76 in10.0 miCalmOvercast
11:15 PM51.8 °F28.4 °F41 %29.75 in10.0 miSE (130°)6.9 mphOvercast
11:35 PM53.6 °F26.6 °F35 %29.74 in10.0 miESE (120°)11.5 mphMostly Cloudy
11:55 PM53.6 °F26.6 °F35 %29.74 in10.0 miSSW (210°)3.5 mphOvercast
Hourly data recorded from KRUT, located miles away from Dorset, Vermont







STORIES FROM OUR PARTNERS